NOAA NWS Hourly Roundups by Site

Regional Weather Roundup for Norman, OK

To Select Another Site Choose from List

Select Site:  

000
ASUS44 KOUN 250210
RWROK

WEATHER ROUNDUP FOR OKLAHOMA
NATIONAL WEATHER SERVICE NORMAN OK
900 PM CDT SAT JUL 24 2021

NOTE: "FAIR" INDICATES FEW OR NO CLOUDS BELOW 12,000 FEET WITH NO
      SIGNIFICANT WEATHER AND/OR OBSTRUCTIONS TO VISIBILITY.

OKZ001>007-009>012-014-015-017-250300-
NORTHWEST OKLAHOMA AND THE PANHANDLE

CITY           SKY/WX    TMP DP  RH WIND       PRES   REMARKS
GAGE           CLEAR     84  67  56 SE8       29.97R
GUYMON         PTCLDY    88  63  43 SE10      30.00R
ENID/WOODRING  PTCLDY    86  72  62 SE7       29.94R HX  92
$$

OKZ016-021>023-033>039-044-045-250300-
SOUTHWEST OKLAHOMA

CITY           SKY/WX    TMP DP  RH WIND       PRES   REMARKS
LAWTON/REGL    CLEAR     87  71  58 SE8       29.94R HX  93
LAWTON/FT SILL CLEAR     86  73  64 SE7       29.94R HX  92
FREDERICK      CLEAR     89  72  56 SE8       29.91R HX  96
CLINTON        CLEAR     89  67  47 MISG      29.99R HX  92
HOBART         CLEAR     87  69  54 SE10      29.96R HX  91
ALTUS AFB      CLEAR     84  71  64 SE8       29.92R
$$

OKZ018>020-024>031-250300-
CENTRAL OKLAHOMA

CITY           SKY/WX    TMP DP  RH WIND       PRES   REMARKS
OKLAHOMA CITY  PTCLDY    83  72  69 S6        29.96R
OKC/WILEY POST CLEAR     86  71  60 S8        29.96R HX  91
OKC/TINKER AFB CLEAR     84  74  71 S6        29.95R HX  92
STILLWATER     CLEAR     88  74  63 S7        29.94R HX  96
GUTHRIE        CLEAR     89  76  65 SE7       29.95R HX 100
$$

OKZ008-013-054>072-250300-
NORTHEAST OKLAHOMA

CITY           SKY/WX    TMP DP  RH WIND       PRES   REMARKS
TULSA          PTCLDY    91  75  59 S6        29.92R HX 101
TULSA/JONES    CLEAR     88  78  72 S5        29.94R HX 101
PONCA CITY     LGT RAIN  79  70  74 MISG      29.94R
BARTLESVILLE   CLEAR     83  80  91 CALM      29.95S HX  95
MUSKOGEE       CLEAR     86  77  74 SE5       29.95R HX  97
$$

OKZ032-040>043-046>053-073>077-250300-
SOUTH CENTRAL/SOUTHEAST OKLAHOMA

CITY           SKY/WX    TMP DP  RH WIND       PRES   REMARKS
ARDMORE/DWNTWN CLEAR     83  76  79 CALM      29.96R HX  91
MCALESTER      CLEAR     86  74  67 S5        29.97R HX  94
$$



 

View Past Reports for Norman, OK.

Products Courtesy of NOAA-NWS
NWS Information Parsing Script by Ken True at Saratoga Weather - Script by SE Lincoln Weather.